Time,TemperatureF,DewpointF,PressureIn,WindDirection,WindDirectionDegrees,WindSpeedMPH,WindSpeedGustMPH,Humidity,HourlyPrecipIn,Conditions,Clouds,dailyrainin,SoftwareType,DateUTC
2013-06-17 00:03:00,75.3,59.5,29.90,NE,47,2.0,3.0,58,0.00,,,0.00,Wunderground v.1.15,2013-06-16 22:03:00,
2013-06-17 00:09:00,75.3,59.5,29.90,NE,47,2.0,3.0,58,0.00,,,0.00,Wunderground v.1.15,2013-06-16 22:09:00,
2013-06-17 00:14:00,75.4,59.6,29.90,NE,47,1.0,1.0,58,0.00,,,0.00,Wunderground v.1.15,2013-06-16 22:14:00,
2013-06-17 00:19:00,75.5,59.7,29.90,NE,47,0.0,1.0,58,0.00,,,0.00,Wunderground v.1.15,2013-06-16 22:19:00,
2013-06-17 00:29:00,75.6,59.3,29.90,NE,47,1.0,1.0,57,0.00,,,0.00,Wunderground v.1.15,2013-06-16 22:29:00,
2013-06-17 00:39:00,75.6,59.3,29.89,NE,47,1.0,3.0,57,0.00,,,0.00,Wunderground v.1.15,2013-06-16 22:39:00,
2013-06-17 00:44:00,75.5,59.7,29.89,NE,47,1.0,1.0,58,0.00,,,0.00,Wunderground v.1.15,2013-06-16 22:44:00,
2013-06-17 00:54:00,75.0,59.7,29.89,NE,47,1.0,1.0,59,0.00,,,0.00,Wunderground v.1.15,2013-06-16 22:54:00,
2013-06-17 01:04:00,74.5,59.7,29.88,NE,47,1.0,3.0,60,0.00,,,0.00,Wunderground v.1.15,2013-06-16 23:04:00,
2013-06-17 01:09:00,74.2,59.9,29.88,NE,47,2.0,3.0,61,0.00,,,0.00,Wunderground v.1.15,2013-06-16 23:09:00,
2013-06-17 01:19:00,73.5,60.1,29.88,NE,47,2.0,5.0,63,0.00,,,0.00,Wunderground v.1.15,2013-06-16 23:19:00,
2013-06-17 01:40:00,73.9,59.6,29.87,NE,47,2.0,3.0,61,0.00,,,0.00,Wunderground v.1.15,2013-06-16 23:40:00,
2013-06-17 01:45:00,73.9,59.6,29.87,NE,47,2.0,2.0,61,0.00,,,0.00,Wunderground v.1.15,2013-06-16 23:45:00,
2013-06-17 01:55:00,73.7,59.4,29.88,NE,47,3.0,3.0,61,0.00,,,0.00,Wunderground v.1.15,2013-06-16 23:55:00,
2013-06-17 02:04:00,73.5,58.8,29.87,NE,47,3.0,3.0,60,0.00,,,0.00,Wunderground v.1.15,2013-06-17 00:04:00,
2013-06-17 02:10:00,73.4,58.7,29.87,NW,317,3.0,3.0,60,0.00,,,0.00,Wunderground v.1.15,2013-06-17 00:10:00,
2013-06-17 02:15:00,73.4,58.7,29.87,NW,317,3.0,3.0,60,0.00,,,0.00,Wunderground v.1.15,2013-06-17 00:15:00,
2013-06-17 02:20:00,73.3,59.0,29.86,NW,317,1.0,3.0,61,0.00,,,0.00,Wunderground v.1.15,2013-06-17 00:20:00,
2013-06-17 02:34:00,73.1,58.8,29.86,NW,321,2.0,2.0,61,0.00,,,0.00,Wunderground v.1.15,2013-06-17 00:34:00,
2013-06-17 02:39:00,73.0,58.8,29.86,NW,321,2.0,2.0,61,0.00,,,0.00,Wunderground v.1.15,2013-06-17 00:39:00,
2013-06-17 02:45:00,73.0,58.8,29.86,NW,321,1.0,1.0,61,0.00,,,0.00,Wunderground v.1.15,2013-06-17 00:45:00,
2013-06-17 02:54:00,72.6,58.4,29.86,NW,321,1.0,3.0,61,0.00,,,0.00,Wunderground v.1.15,2013-06-17 00:54:00,
2013-06-17 03:04:00,72.5,57.4,29.85,NW,321,2.0,5.0,59,0.00,,,0.00,Wunderground v.1.15,2013-06-17 01:04:00,
2013-06-17 03:09:00,72.8,56.7,29.85,NW,321,2.0,5.0,57,0.00,,,0.00,Wunderground v.1.15,2013-06-17 01:09:00,
2013-06-17 03:14:00,72.9,56.3,29.85,NW,321,2.0,2.0,56,0.00,,,0.00,Wunderground v.1.15,2013-06-17 01:14:00,
2013-06-17 03:24:00,73.3,56.2,29.86,NW,321,1.0,5.0,55,0.00,,,0.00,Wunderground v.1.15,2013-06-17 01:24:00,
2013-06-17 03:34:00,73.5,55.8,29.85,NW,323,3.0,3.0,54,0.00,,,0.00,Wunderground v.1.15,2013-06-17 01:34:00,
2013-06-17 03:39:00,73.3,56.2,29.85,North,360,4.0,4.0,55,0.00,,,0.00,Wunderground v.1.15,2013-06-17 01:39:00,
2013-06-17 03:44:00,72.9,55.8,29.85,North,360,3.0,3.0,55,0.00,,,0.00,Wunderground v.1.15,2013-06-17 01:44:00,
2013-06-17 03:49:00,72.7,55.6,29.85,North,360,1.0,3.0,55,0.00,,,0.00,Wunderground v.1.15,2013-06-17 01:49:00,
2013-06-17 04:04:00,72.5,55.4,29.85,ENE,78,2.0,4.0,55,0.00,,,0.00,Wunderground v.1.15,2013-06-17 02:04:00,
2013-06-17 04:09:00,72.3,54.7,29.85,ENE,76,3.0,4.0,54,0.00,,,0.00,Wunderground v.1.15,2013-06-17 02:09:00,
2013-06-17 04:14:00,72.2,54.6,29.85,ENE,76,3.0,3.0,54,0.00,,,0.00,Wunderground v.1.15,2013-06-17 02:14:00,
2013-06-17 04:19:00,72.3,54.7,29.84,ENE,76,3.0,3.0,54,0.00,,,0.00,Wunderground v.1.15,2013-06-17 02:19:00,
2013-06-17 04:29:00,71.9,54.9,29.84,ENE,75,3.0,4.0,55,0.00,,,0.00,Wunderground v.1.15,2013-06-17 02:29:00,
2013-06-17 04:39:00,71.5,54.5,29.84,NE,44,3.0,3.0,55,0.00,,,0.00,Wunderground v.1.15,2013-06-17 02:39:00,
2013-06-17 04:44:00,71.7,53.7,29.83,NNE,14,3.0,3.0,53,0.00,,,0.00,Wunderground v.1.15,2013-06-17 02:44:00,
2013-06-17 04:49:00,71.8,54.3,29.83,NNE,15,3.0,3.0,54,0.00,,,0.00,Wunderground v.1.15,2013-06-17 02:49:00,
2013-06-17 05:04:00,71.7,53.1,29.83,NNE,15,1.0,3.0,52,0.00,,,0.00,Wunderground v.1.15,2013-06-17 03:04:00,
2013-06-17 05:09:00,71.9,52.8,29.82,NNE,21,2.0,4.0,51,0.00,,,0.00,Wunderground v.1.15,2013-06-17 03:09:00,
2013-06-17 05:14:00,71.8,52.7,29.82,NNE,21,2.0,3.0,51,0.00,,,0.00,Wunderground v.1.15,2013-06-17 03:14:00,
2013-06-17 05:24:00,71.2,52.7,29.82,NNE,21,4.0,4.0,52,0.00,,,0.00,Wunderground v.1.15,2013-06-17 03:24:00,
2013-06-17 05:33:00,71.1,52.6,29.81,NNE,22,3.0,3.0,52,0.00,,,0.00,Wunderground v.1.15,2013-06-17 03:33:00,
2013-06-17 05:39:00,71.1,52.6,29.81,NNE,25,3.0,4.0,52,0.00,,,0.00,Wunderground v.1.15,2013-06-17 03:39:00,
2013-06-17 05:44:00,70.7,52.7,29.81,NNE,25,3.0,4.0,53,0.00,,,0.00,Wunderground v.1.15,2013-06-17 03:44:00,
2013-06-17 05:54:00,70.4,53.0,29.82,NNE,25,3.0,3.0,54,0.00,,,0.00,Wunderground v.1.15,2013-06-17 03:54:00,
2013-06-17 06:03:00,70.3,53.4,29.81,NNE,25,3.0,3.0,55,0.00,,,0.00,Wunderground v.1.15,2013-06-17 04:03:00,
2013-06-17 06:09:00,70.4,54.9,29.81,NNE,26,2.0,5.0,58,0.00,,,0.00,Wunderground v.1.15,2013-06-17 04:09:00,
2013-06-17 06:14:00,70.5,55.5,29.81,NNE,26,3.0,3.0,59,0.00,,,0.00,Wunderground v.1.15,2013-06-17 04:14:00,
2013-06-17 06:24:00,70.8,54.8,29.81,NNE,26,3.0,4.0,57,0.00,,,0.00,Wunderground v.1.15,2013-06-17 04:24:00,
2013-06-17 06:35:00,70.9,54.4,29.81,NNE,26,3.0,3.0,56,0.00,,,0.00,Wunderground v.1.15,2013-06-17 04:35:00,
2013-06-17 06:40:00,70.7,54.2,29.81,NNE,26,3.0,4.0,56,0.00,,,0.00,Wunderground v.1.15,2013-06-17 04:40:00,
2013-06-17 06:45:00,70.7,53.7,29.81,NNE,26,1.0,1.0,55,0.00,,,0.00,Wunderground v.1.15,2013-06-17 04:45:00,
2013-06-17 06:54:00,71.7,53.7,29.81,NNE,26,0.0,1.0,53,0.00,,,0.00,Wunderground v.1.15,2013-06-17 04:54:00,
2013-06-17 07:00:00,71.9,53.8,29.82,NNE,26,0.0,0.0,53,0.00,,,0.00,Wunderground v.1.15,2013-06-17 05:00:00,
2013-06-17 07:09:00,72.3,54.2,29.81,NNE,26,3.0,3.0,53,0.00,,,0.00,Wunderground v.1.15,2013-06-17 05:09:00,
2013-06-17 07:14:00,72.5,53.9,29.81,NNE,26,3.0,3.0,52,0.00,,,0.00,Wunderground v.1.15,2013-06-17 05:14:00,
2013-06-17 07:19:00,72.3,54.2,29.81,NNE,26,3.0,4.0,53,0.00,,,0.00,Wunderground v.1.15,2013-06-17 05:19:00,
2013-06-17 07:34:00,72.7,56.1,29.82,NNE,32,4.0,4.0,56,0.00,,,0.00,Wunderground v.1.15,2013-06-17 05:34:00,
2013-06-17 07:39:00,73.0,56.9,29.81,NNE,33,3.0,4.0,57,0.00,,,0.00,Wunderground v.1.15,2013-06-17 05:39:00,
2013-06-17 07:45:00,73.1,57.4,29.81,NE,50,4.0,5.0,58,0.00,,,0.00,Wunderground v.1.15,2013-06-17 05:45:00,
2013-06-17 07:54:00,73.6,57.4,29.81,NE,49,4.0,5.0,57,0.00,,,0.00,Wunderground v.1.15,2013-06-17 05:54:00,
2013-06-17 08:04:00,74.0,57.3,29.81,NE,43,3.0,4.0,56,0.00,,,0.00,Wunderground v.1.15,2013-06-17 06:04:00,
2013-06-17 08:09:00,74.4,57.7,29.81,NE,43,4.0,4.0,56,0.00,,,0.00,Wunderground v.1.15,2013-06-17 06:09:00,
2013-06-17 08:14:00,74.8,58.5,29.80,NE,47,5.0,8.0,57,0.00,,,0.00,Wunderground v.1.15,2013-06-17 06:14:00,
2013-06-17 08:24:00,75.8,59.0,29.80,NNE,17,5.0,8.0,56,0.00,,,0.00,Wunderground v.1.15,2013-06-17 06:24:00,
2013-06-17 08:34:00,76.7,57.7,29.80,North,5,3.0,4.0,52,0.00,,,0.00,Wunderground v.1.15,2013-06-17 06:34:00,
2013-06-17 08:39:00,77.4,57.9,29.80,NNE,15,2.0,4.0,51,0.00,,,0.00,Wunderground v.1.15,2013-06-17 06:39:00,
2013-06-17 08:44:00,78.1,59.0,29.80,NNE,16,2.0,3.0,52,0.00,,,0.00,Wunderground v.1.15,2013-06-17 06:44:00,
2013-06-17 08:54:00,79.5,60.3,29.80,NE,46,3.0,3.0,52,0.00,,,0.00,Wunderground v.1.15,2013-06-17 06:54:00,
2013-06-17 09:04:00,80.6,61.3,29.80,NE,46,4.0,4.0,52,0.00,,,0.00,Wunderground v.1.15,2013-06-17 07:04:00,
2013-06-17 09:09:00,81.3,61.4,29.80,NE,47,4.0,4.0,51,0.00,,,0.00,Wunderground v.1.15,2013-06-17 07:09:00,
2013-06-17 09:14:00,82.1,61.6,29.80,NE,50,4.0,5.0,50,0.00,,,0.00,Wunderground v.1.15,2013-06-17 07:14:00,
2013-06-17 09:24:00,82.5,62.0,29.80,ENE,61,5.0,5.0,50,0.00,,,0.00,Wunderground v.1.15,2013-06-17 07:24:00,
2013-06-17 09:34:00,82.9,61.8,29.80,NE,49,3.0,6.0,49,0.00,,,0.00,Wunderground v.1.15,2013-06-17 07:34:00,
2013-06-17 09:39:00,83.1,62.5,29.80,ENE,74,4.0,6.0,50,0.00,,,0.00,Wunderground v.1.15,2013-06-17 07:39:00,
2013-06-17 09:44:00,83.4,62.8,29.80,ENE,71,4.0,4.0,50,0.00,,,0.00,Wunderground v.1.15,2013-06-17 07:44:00,
2013-06-17 09:54:00,83.6,63.0,29.80,NE,42,4.0,4.0,50,0.00,,,0.00,Wunderground v.1.15,2013-06-17 07:54:00,
2013-06-17 09:59:00,84.3,63.1,29.80,NE,39,3.0,5.0,49,0.00,,,0.00,Wunderground v.1.15,2013-06-17 07:59:00,
2013-06-17 10:09:00,85.3,64.0,29.79,NE,55,4.0,5.0,49,0.00,,,0.00,Wunderground v.1.15,2013-06-17 08:09:00,
2013-06-17 10:14:00,85.9,63.9,29.80,East,91,4.0,5.0,48,0.00,,,0.00,Wunderground v.1.15,2013-06-17 08:14:00,
2013-06-17 10:24:00,86.5,63.9,29.80,NE,45,3.0,3.0,47,0.00,,,0.00,Wunderground v.1.15,2013-06-17 08:24:00,
2013-06-17 10:34:00,87.5,62.2,29.80,ESE,106,4.0,4.0,43,0.00,,,0.00,Wunderground v.1.15,2013-06-17 08:34:00,
2013-06-17 10:39:00,87.7,62.4,29.79,SE,136,6.0,6.0,43,0.00,,,0.00,Wunderground v.1.15,2013-06-17 08:39:00,
2013-06-17 10:49:00,88.3,61.6,29.79,ESE,112,5.0,6.0,41,0.00,,,0.00,Wunderground v.1.15,2013-06-17 08:49:00,
2013-06-17 10:54:00,88.4,61.0,29.79,ESE,112,7.0,7.0,40,0.00,,,0.00,Wunderground v.1.15,2013-06-17 08:54:00,
2013-06-17 11:04:00,89.3,61.1,29.79,ESE,108,5.0,5.0,39,0.00,,,0.00,Wunderground v.1.15,2013-06-17 09:04:00,
2013-06-17 11:09:00,89.9,61.6,29.79,SSE,147,4.0,5.0,39,0.00,,,0.00,Wunderground v.1.15,2013-06-17 09:09:00,
2013-06-17 11:14:00,90.4,61.3,29.80,SE,138,3.0,8.0,38,0.00,,,0.00,Wunderground v.1.15,2013-06-17 09:14:00,
2013-06-17 11:24:00,90.2,61.2,29.80,SSE,149,5.0,8.0,38,0.00,,,0.00,Wunderground v.1.15,2013-06-17 09:24:00,
2013-06-17 11:34:00,88.4,65.0,29.80,South,188,3.0,6.0,46,0.00,,,0.00,Wunderground v.1.15,2013-06-17 09:34:00,
2013-06-17 11:39:00,87.1,65.6,29.80,South,190,2.0,6.0,49,0.00,,,0.00,Wunderground v.1.15,2013-06-17 09:39:00,
2013-06-17 11:44:00,86.1,65.3,29.80,South,188,1.0,5.0,50,0.00,,,0.00,Wunderground v.1.15,2013-06-17 09:44:00,
2013-06-17 11:54:00,84.4,64.3,29.80,South,188,2.0,2.0,51,0.00,,,0.00,Wunderground v.1.15,2013-06-17 09:54:00,
2013-06-17 12:04:00,83.3,65.4,29.80,SSW,210,3.0,3.0,55,0.00,,,0.00,Wunderground v.1.15,2013-06-17 10:04:00,
2013-06-17 12:09:00,83.2,65.4,29.81,WSW,240,4.0,9.0,55,0.00,,,0.00,Wunderground v.1.15,2013-06-17 10:09:00,
2013-06-17 12:19:00,82.1,68.3,29.81,SSE,166,5.0,5.0,63,0.00,,,0.00,Wunderground v.1.15,2013-06-17 10:19:00,
2013-06-17 12:29:00,83.8,65.4,29.81,South,178,4.0,5.0,54,0.00,,,0.00,Wunderground v.1.15,2013-06-17 10:29:00,
2013-06-17 12:39:00,84.4,66.5,29.81,South,182,4.0,5.0,55,0.00,,,0.00,Wunderground v.1.15,2013-06-17 10:39:00,
2013-06-17 12:44:00,83.9,67.0,29.81,SSE,153,5.0,5.0,57,0.00,,,0.00,Wunderground v.1.15,2013-06-17 10:44:00,
2013-06-17 12:49:00,83.9,66.0,29.81,South,175,5.0,8.0,55,0.00,,,0.00,Wunderground v.1.15,2013-06-17 10:49:00,
2013-06-17 12:59:00,83.5,66.7,29.81,SSE,163,5.0,6.0,57,0.00,,,0.00,Wunderground v.1.15,2013-06-17 10:59:00,
2013-06-17 13:09:00,83.7,66.3,29.81,SSE,168,4.0,7.0,56,0.00,,,0.00,Wunderground v.1.15,2013-06-17 11:09:00,
2013-06-17 13:14:00,83.6,67.3,29.81,SSE,158,4.0,6.0,58,0.00,,,0.00,Wunderground v.1.15,2013-06-17 11:14:00,
2013-06-17 13:24:00,82.8,67.0,29.80,SE,142,5.0,5.0,59,0.00,,,0.00,Wunderground v.1.15,2013-06-17 11:24:00,
2013-06-17 13:34:00,83.4,66.1,29.80,SE,139,5.0,7.0,56,0.00,,,0.00,Wunderground v.1.15,2013-06-17 11:34:00,
2013-06-17 13:39:00,83.2,66.9,29.80,SSE,167,6.0,7.0,58,0.00,,,0.00,Wunderground v.1.15,2013-06-17 11:39:00,
2013-06-17 13:44:00,82.2,66.9,29.80,SSE,167,7.0,8.0,60,0.00,,,0.00,Wunderground v.1.15,2013-06-17 11:44:00,
2013-06-17 13:54:00,81.7,66.9,29.80,SSE,159,7.0,7.0,61,0.00,,,0.00,Wunderground v.1.15,2013-06-17 11:54:00,
2013-06-17 14:04:00,81.7,67.4,29.80,South,171,6.0,7.0,62,0.00,,,0.00,Wunderground v.1.15,2013-06-17 12:04:00,
2013-06-17 14:09:00,81.8,67.5,29.80,South,190,5.0,7.0,62,0.00,,,0.00,Wunderground v.1.15,2013-06-17 12:09:00,
2013-06-17 14:14:00,81.7,67.4,29.79,SSE,152,5.0,5.0,62,0.00,,,0.00,Wunderground v.1.15,2013-06-17 12:14:00,
2013-06-17 14:24:00,81.8,68.0,29.79,South,183,4.0,4.0,63,0.00,,,0.00,Wunderground v.1.15,2013-06-17 12:24:00,
2013-06-17 14:35:00,81.8,68.0,29.79,South,188,4.0,4.0,63,0.00,,,0.00,Wunderground v.1.15,2013-06-17 12:35:00,
2013-06-17 14:40:00,81.8,68.0,29.79,SSW,210,4.0,4.0,63,0.00,,,0.00,Wunderground v.1.15,2013-06-17 12:40:00,
2013-06-17 14:45:00,81.8,68.0,29.79,SSE,165,3.0,4.0,63,0.00,,,0.00,Wunderground v.1.15,2013-06-17 12:45:00,
2013-06-17 14:54:00,82.2,67.9,29.78,South,180,3.0,3.0,62,0.00,,,0.00,Wunderground v.1.15,2013-06-17 12:54:00,
2013-06-17 15:04:00,82.2,68.3,29.78,SSW,208,2.0,3.0,63,0.00,,,0.00,Wunderground v.1.15,2013-06-17 13:04:00,
2013-06-17 15:09:00,82.1,68.7,29.78,SW,215,2.0,5.0,64,0.00,,,0.00,Wunderground v.1.15,2013-06-17 13:09:00,
2013-06-17 15:20:00,81.2,68.3,29.78,South,181,3.0,5.0,65,0.00,,,0.00,Wunderground v.1.15,2013-06-17 13:20:00,
2013-06-17 15:34:00,80.5,68.5,29.78,SW,230,5.0,5.0,67,0.00,,,0.00,Wunderground v.1.15,2013-06-17 13:34:00,
2013-06-17 15:40:00,79.8,67.9,29.78,SW,232,7.0,10.0,67,0.00,,,0.00,Wunderground v.1.15,2013-06-17 13:40:00,
2013-06-17 15:45:00,79.0,68.4,29.78,SSW,213,8.0,8.0,70,0.00,,,0.00,Wunderground v.1.15,2013-06-17 13:45:00,
2013-06-17 15:54:00,78.5,69.1,29.78,SSW,208,7.0,7.0,73,0.00,,,0.00,Wunderground v.1.15,2013-06-17 13:54:00,
2013-06-17 16:04:00,79.5,69.7,29.78,SW,219,4.0,4.0,72,0.00,,,0.00,Wunderground v.1.15,2013-06-17 14:04:00,
2013-06-17 16:09:00,79.4,69.6,29.77,WSW,241,5.0,5.0,72,0.00,,,0.00,Wunderground v.1.15,2013-06-17 14:09:00,
2013-06-17 16:15:00,79.3,69.1,29.77,SSE,163,7.0,10.0,71,0.00,,,0.00,Wunderground v.1.15,2013-06-17 14:15:00,
2013-06-17 16:20:00,78.9,69.1,29.77,SSE,155,9.0,10.0,72,0.00,,,0.00,Wunderground v.1.15,2013-06-17 14:20:00,
2013-06-17 16:30:00,78.5,69.1,29.78,SE,146,10.0,14.0,73,0.00,,,0.00,Wunderground v.1.15,2013-06-17 14:30:00,
2013-06-17 16:39:00,78.3,69.3,29.78,SSE,168,9.0,10.0,74,0.00,,,0.00,Wunderground v.1.15,2013-06-17 14:39:00,
2013-06-17 16:44:00,78.2,69.6,29.78,South,188,8.0,10.0,75,0.00,,,0.00,Wunderground v.1.15,2013-06-17 14:44:00,
2013-06-17 16:50:00,78.3,69.7,29.78,South,189,7.0,10.0,75,0.00,,,0.00,Wunderground v.1.15,2013-06-17 14:50:00,
2013-06-17 17:04:00,78.2,70.0,29.77,SSE,163,7.0,7.0,76,0.00,,,0.00,Wunderground v.1.15,2013-06-17 15:04:00,
2013-06-17 17:09:00,78.4,70.2,29.77,SSE,153,6.0,7.0,76,0.00,,,0.00,Wunderground v.1.15,2013-06-17 15:09:00,
2013-06-17 17:14:00,78.4,70.2,29.77,South,176,5.0,5.0,76,0.00,,,0.00,Wunderground v.1.15,2013-06-17 15:14:00,
2013-06-17 17:19:00,78.7,70.5,29.77,SW,217,4.0,5.0,76,0.00,,,0.00,Wunderground v.1.15,2013-06-17 15:19:00,
2013-06-17 17:34:00,78.7,70.5,29.77,SSE,155,4.0,4.0,76,0.00,,,0.00,Wunderground v.1.15,2013-06-17 15:34:00,
2013-06-17 17:39:00,78.5,70.3,29.77,SSW,206,4.0,5.0,76,0.00,,,0.00,Wunderground v.1.15,2013-06-17 15:39:00,
2013-06-17 17:45:00,78.5,70.3,29.77,SSW,208,4.0,5.0,76,0.00,,,0.00,Wunderground v.1.15,2013-06-17 15:45:00,
2013-06-17 17:54:00,78.4,70.6,29.77,South,176,4.0,9.0,77,0.00,,,0.00,Wunderground v.1.15,2013-06-17 15:54:00,
2013-06-17 18:04:00,78.3,70.9,29.77,South,175,3.0,3.0,78,0.00,,,0.00,Wunderground v.1.15,2013-06-17 16:04:00,
2013-06-17 18:10:00,78.5,71.1,29.76,SSW,207,2.0,2.0,78,0.00,,,0.00,Wunderground v.1.15,2013-06-17 16:10:00,
2013-06-17 18:15:00,78.7,71.3,29.77,SSW,196,2.0,2.0,78,0.00,,,0.00,Wunderground v.1.15,2013-06-17 16:15:00,
2013-06-17 18:24:00,78.4,71.0,29.77,South,186,3.0,5.0,78,0.00,,,0.00,Wunderground v.1.15,2013-06-17 16:24:00,
2013-06-17 18:34:00,78.0,71.0,29.77,SSW,196,3.0,3.0,79,0.00,,,0.00,Wunderground v.1.15,2013-06-17 16:34:00,
2013-06-17 18:40:00,78.2,71.2,29.77,South,180,2.0,6.0,79,0.00,,,0.00,Wunderground v.1.15,2013-06-17 16:40:00,
2013-06-17 18:45:00,78.2,71.2,29.76,SSE,159,2.0,5.0,79,0.00,,,0.00,Wunderground v.1.15,2013-06-17 16:45:00,
2013-06-17 18:55:00,78.0,71.0,29.76,South,172,2.0,2.0,79,0.00,,,0.00,Wunderground v.1.15,2013-06-17 16:55:00,
2013-06-17 19:00:00,77.8,71.1,29.76,SSE,166,3.0,3.0,80,0.00,,,0.00,Wunderground v.1.15,2013-06-17 17:00:00,
2013-06-17 19:10:00,77.7,71.0,29.76,South,171,2.0,3.0,80,0.00,,,0.00,Wunderground v.1.15,2013-06-17 17:10:00,
2013-06-17 19:15:00,77.7,71.0,29.76,SSE,161,1.0,1.0,80,0.00,,,0.00,Wunderground v.1.15,2013-06-17 17:15:00,
2013-06-17 19:20:00,77.8,71.1,29.76,SSE,161,1.0,1.0,80,0.00,,,0.00,Wunderground v.1.15,2013-06-17 17:20:00,
2013-06-17 19:34:00,78.2,70.8,29.76,SSE,159,0.0,0.0,78,0.00,,,0.00,Wunderground v.1.15,2013-06-17 17:34:00,
2013-06-17 19:40:00,78.2,70.4,29.76,SSE,159,0.0,0.0,77,0.00,,,0.00,Wunderground v.1.15,2013-06-17 17:40:00,
2013-06-17 19:45:00,78.2,70.4,29.75,SSE,158,0.0,0.0,77,0.00,,,0.00,Wunderground v.1.15,2013-06-17 17:45:00,
2013-06-17 19:50:00,78.2,70.4,29.75,SSE,158,0.0,0.0,77,0.00,,,0.00,Wunderground v.1.15,2013-06-17 17:50:00,
2013-06-17 20:04:00,79.1,71.3,29.76,SSE,159,0.0,0.0,77,0.00,,,0.00,Wunderground v.1.15,2013-06-17 18:04:00,
2013-06-17 20:09:00,78.8,71.0,29.76,SSE,159,0.0,0.0,77,0.00,,,0.00,Wunderground v.1.15,2013-06-17 18:09:00,
2013-06-17 20:15:00,78.6,71.2,29.76,SSE,159,0.0,0.0,78,0.00,,,0.00,Wunderground v.1.15,2013-06-17 18:15:00,
2013-06-17 20:24:00,78.1,70.7,29.76,SSE,159,0.0,0.0,78,0.00,,,0.00,Wunderground v.1.15,2013-06-17 18:24:00,
2013-06-17 20:34:00,77.4,70.7,29.77,SSE,159,0.0,0.0,80,0.00,,,0.00,Wunderground v.1.15,2013-06-17 18:34:00,
2013-06-17 20:39:00,77.2,70.5,29.77,SSE,159,0.0,0.0,80,0.00,,,0.00,Wunderground v.1.15,2013-06-17 18:39:00,
2013-06-17 20:45:00,76.8,70.5,29.77,South,175,1.0,4.0,81,0.00,,,0.00,Wunderground v.1.15,2013-06-17 18:45:00,
2013-06-17 20:50:00,76.3,70.4,29.78,South,169,2.0,5.0,82,0.00,,,0.00,Wunderground v.1.15,2013-06-17 18:50:00,
2013-06-17 21:00:00,75.3,70.5,29.78,SSE,166,3.0,6.0,85,0.00,,,0.00,Wunderground v.1.15,2013-06-17 19:00:00,
2013-06-17 21:09:00,74.7,70.6,29.79,South,175,4.0,4.0,87,0.00,,,0.00,Wunderground v.1.15,2013-06-17 19:09:00,
2013-06-17 21:14:00,74.5,70.4,29.79,South,171,4.0,7.0,87,0.00,,,0.00,Wunderground v.1.15,2013-06-17 19:14:00,
2013-06-17 21:24:00,74.1,70.3,29.79,SSW,203,4.0,4.0,88,0.00,,,0.00,Wunderground v.1.15,2013-06-17 19:24:00,
2013-06-17 21:30:00,74.0,70.6,29.80,South,178,4.0,4.0,89,0.00,,,0.00,Wunderground v.1.15,2013-06-17 19:30:00,
2013-06-17 21:39:00,73.7,70.3,29.80,SSW,205,4.0,4.0,89,0.00,,,0.00,Wunderground v.1.15,2013-06-17 19:39:00,
2013-06-17 21:44:00,73.5,70.4,29.80,SW,217,4.0,5.0,90,0.00,,,0.00,Wunderground v.1.15,2013-06-17 19:44:00,
2013-06-17 21:54:00,73.1,70.0,29.80,SSE,166,5.0,5.0,90,0.00,,,0.00,Wunderground v.1.15,2013-06-17 19:54:00,
2013-06-17 22:00:00,72.9,70.1,29.80,SSE,165,6.0,6.0,91,0.00,,,0.00,Wunderground v.1.15,2013-06-17 20:00:00,
2013-06-17 22:09:00,72.6,69.8,29.81,South,180,6.0,6.0,91,0.00,,,0.00,Wunderground v.1.15,2013-06-17 20:09:00,
2013-06-17 22:14:00,72.5,69.7,29.80,SSW,196,4.0,5.0,91,0.00,,,0.00,Wunderground v.1.15,2013-06-17 20:14:00,
2013-06-17 22:19:00,72.4,69.6,29.80,SSE,155,4.0,6.0,91,0.00,,,0.00,Wunderground v.1.15,2013-06-17 20:19:00,
2013-06-17 22:29:00,72.5,69.7,29.81,SSW,204,4.0,7.0,91,0.00,,,0.00,Wunderground v.1.15,2013-06-17 20:29:00,
2013-06-17 22:39:00,72.4,69.6,29.80,SSE,160,3.0,4.0,91,0.00,,,0.00,Wunderground v.1.15,2013-06-17 20:39:00,
2013-06-17 22:44:00,72.4,69.6,29.79,SSE,160,1.0,1.0,91,0.00,,,0.00,Wunderground v.1.15,2013-06-17 20:44:00,
2013-06-17 22:49:00,72.4,69.6,29.80,SSE,160,0.0,1.0,91,0.00,,,0.00,Wunderground v.1.15,2013-06-17 20:49:00,
2013-06-17 23:04:00,72.2,69.7,29.79,SSE,160,0.0,0.0,92,0.00,,,0.00,Wunderground v.1.15,2013-06-17 21:04:00,
2013-06-17 23:09:00,72.2,69.7,29.79,SSE,160,0.0,1.0,92,0.00,,,0.00,Wunderground v.1.15,2013-06-17 21:09:00,
2013-06-17 23:24:00,72.0,69.5,29.77,North,360,3.0,4.0,92,0.00,,,0.00,Wunderground v.1.15,2013-06-17 21:24:00,
2013-06-17 23:34:00,72.0,69.5,29.77,North,360,3.0,3.0,92,0.00,,,0.00,Wunderground v.1.15,2013-06-17 21:34:00,
2013-06-17 23:39:00,72.0,69.5,29.77,North,360,3.0,3.0,92,0.00,,,0.00,Wunderground v.1.15,2013-06-17 21:39:00,
2013-06-17 23:44:00,72.1,69.6,29.77,North,355,2.0,2.0,92,0.00,,,0.00,Wunderground v.1.15,2013-06-17 21:44:00,
2013-06-17 23:54:00,72.2,69.7,29.77,North,355,0.0,3.0,92,0.00,,,0.00,Wunderground v.1.15,2013-06-17 21:54:00,